Regional Weather Roundup
Issued by NWS

Home | Current Version | Previous Version | Graphics & Text | Print | Product List | Glossary Off
Versions: 1 2 3 4 5 6 7 8 9 10 11 12 13 14 15 16 17 18 19 20 21 22 23 24 25 26 27 28 29 30 31 32 33 34 35 36 37 38 39 40 41 42 43 44 45 46 47 48 49 50

000
ASUS43 KTOP 232359
RWRKS

WEATHER ROUNDUP FOR KANSAS
NATIONAL WEATHER SERVICE GOODLAND KS
700 PM CDT FRI JUN 23 2017

NOTE:  "FAIR" INDICATES FEW OR NO CLOUDS BELOW 12,000 FEET WITH NO
SIGNIFICANT WEATHER AND/OR OBSTRUCTIONS TO VISIBILITY.

KSZ001>006-013>018-027>032-041>047-240100-
NORTHWEST KANSAS

CITY           SKY/WX    TMP DP  RH WIND       PRES   REMARKS
GOODLAND       CLOUDY    70  50  49 W9        30.15F
6HR MIN TEMP:  65; 6HR MAX TEMP:  70;

HAYS           CLOUDY    77  48  35 W3        30.07F
HILL CITY      MOSUNNY   80  45  28 N12       30.08S
6HR MIN TEMP:  72; 6HR MAX TEMP:  82;

RUSSELL        PTSUNNY   78  47  33 NW9       30.05S
6HR MIN TEMP:  63; 6HR MAX TEMP:  80; 6HR PCP:  0.03;

$$

KSZ061>065-074>080-084>089-240100-
SOUTHWEST KANSAS

CITY           SKY/WX    TMP DP  RH WIND       PRES   REMARKS
DODGE CITY     CLOUDY    72  47  40 N14       30.11F
6HR MIN TEMP:  70; 6HR MAX TEMP:  75;

GARDEN CITY    MOSUNNY   73  45  36 NE14      30.13S
6HR MIN TEMP:  69; 6HR MAX TEMP:  75;

GREAT BEND     CLOUDY    76  49  38 N9        30.07S
LIBERAL        PTSUNNY   74  49  41 NE16      30.12S
$$

KSZ066>073-081>083-090>101-240100-
SOUTHEAST KANSAS

CITY           SKY/WX    TMP DP  RH WIND       PRES   REMARKS
CHANUTE        SUNNY     81  51  35 N14       29.98R
6HR MIN TEMP:  81; 6HR MAX TEMP:  88;

COFFEYVILLE    SUNNY     82  54  37 N12       29.95R
6HR MIN TEMP:  82; 6HR MAX TEMP:  89;

HUTCHINSON     CLOUDY    77  46  33 N8        30.03S
6HR MIN TEMP:  69; 6HR MAX TEMP:  81; 6HR PCP: TRACE;

MEDICINE LODGE   N/A     75  47  36 N14       30.04S
NEWTON         MOSUNNY   75  46  35 N12       30.03S
PARSONS        SUNNY     83  55  38 N10       29.97R
6HR MIN TEMP:  82; 6HR MAX TEMP:  88;

WICHITA INTL   MOSUNNY   79  49  34 N10       30.01S
6HR MIN TEMP:  75; 6HR MAX TEMP:  84; 6HR PCP: TRACE;

WICHITA JABRA  MOSUNNY   78  49  35 N9        30.02S
6HR MIN TEMP:  74; 6HR MAX TEMP:  82; 6HR PCP: TRACE;

WINFIELD       CLOUDY    79  55  43 N14       30.00F
6HR MIN TEMP:  76; 6HR MAX TEMP:  86; 6HR PCP: TRACE;

$$

KSZ007>012-019>026-033>040-048>060-102>105-240100-
NORTHEAST KANSAS

CITY           SKY/WX    TMP DP  RH WIND       PRES   REMARKS
CONCORDIA      SUNNY     79  47  32 NW15      30.03S
6HR MIN TEMP:  74; 6HR MAX TEMP:  81;

EMPORIA        SUNNY     78  48  34 N12G17    30.00S
6HR MIN TEMP:  78; 6HR MAX TEMP:  81;

LAWRENCE       SUNNY     77  56  48 NW13      29.99R
6HR MIN TEMP:  77; 6HR MAX TEMP:  82;

MANHATTAN      MOSUNNY   80  52  37 VRB7      30.01R
6HR MIN TEMP:  76; 6HR MAX TEMP:  82;

OLATHE IND     SUNNY     76  53  44 N16       29.99R
6HR MIN TEMP:  76; 6HR MAX TEMP:  81;

OLATHE EXE     SUNNY     77  51  40 NW12      29.98R
6HR MIN TEMP:  77; 6HR MAX TEMP:  82;

SALINA         SUNNY     82  46  28 N12G17    30.02S
6HR MIN TEMP:  76; 6HR MAX TEMP:  84;

TOPEKA BILLARD SUNNY     78  56  46 N6        29.99R
6HR MIN TEMP:  77; 6HR MAX TEMP:  81;

TOPEKA FORBES  SUNNY     79  54  41 N10       29.99S
6HR MIN TEMP:  79; 6HR MAX TEMP:  82;

$$



USA.gov is the U.S. government's official web portal to all federal, state and local government web resources and services.